Starlink 3542

operational
NORAD ID: 51852 Int'l Des: 2022-022 Owner: SPXS Country: US Constellation: starlink
LEOCIRCULAR

Starlink 3542について

説明を読み込み中...

リアルタイム位置

3D地球を読み込み中...

次回通過

高度履歴

Altitude vs Time

uPlot chart will show altitude changes over time

軌道要素

1 51852U 22022A 25259.24385849 -.00000530 00000-0 -15183-4 0 9997
2 51852 53.2167 82.2388 0001303 94.7380 265.3761 15.08845200195420
Epoch: Sep 16, 2025 • Age: 6 hours

現在のステータス

高度 558.6 km
速度 7.58 km/s
衛星直下点 -51.81°S, 159.98°E
打ち上げ日 Mar 3, 2022
運用期間 3.5 years
タイプ internet

技術仕様

分類 Payload
質量 297.00 kg
乾燥質量 275.00 kg
総質量 297.00 kg
長さ 0.20 m
直径 2.80 m
スパン 9.00 m
形状 Box + pan
製造者 SPXS
バスタイプ Starlink
フェーズステータス In Orbit
所有者/国 SPXS/US

大規模コンステレーション

Loading constellations...